Location: Bluff Heights
(33.7692°N, 118.1592°W)
Time: 15:08:52
(UTC+00:00)

XW-2B - Visible Passes

Search period start: 25 September 2021 00:00
Search period end: 05 October 2021 00:00
Orbit: 505 x 523 km, 97.5° (Epoch: 25 September)

Date Brightness Start Highest point End Pass type
(mag) Time Alt. Az. Time Alt. Az. Time Alt. Az.
26 Sep ? 13:06:12 10° NE 13:09:00 20° E 13:11:47 10° SE visible
27 Sep ? 12:51:56 10° ENE 12:53:37 13° E 12:55:18 10° ESE visible
29 Sep ? 02:21:22 10° WSW 02:22:25 11° W 02:23:27 10° WNW visible
30 Sep ? 02:04:26 10° SW 02:07:00 17° W 02:09:35 10° NW visible
02 Oct ? 13:08:16 10° NE 13:11:10 21° E 13:14:02 10° SSE visible
03 Oct ? 12:53:52 10° ENE 12:55:45 13° E 12:57:38 10° SE visible
